Location: Balaclava NSW 2575, Australia
(34.4510°S, 150.4953°E)
Time: 21:24:02
(UTC+10:00)

Hubble Space Telescope - Pass Details

Date: 23 May 2021
Orbit: 535 x 539 km, 28.5° (Epoch: 19 June)

Event Time Altitude Azimuth Distance (km) Brightness Sun altitude
Rises 18:39:10 0° 278° (W) 2,689 5.9 -20.4°
Reaches altitude 10° 18:41:39 10° 289° (WNW) 1,797 4.6 -20.9°
Maximum altitude 18:45:14 28° 349° (N) 1,023 2.3 -21.6°
Enters shadow 18:46:28 24° 19° (NNE) 1,138 2.3 -21.8°
